TimeCST,TemperatureF,Dew PointF,Humidity,Sea Level PressureIn,VisibilityMPH,Wind Direction,Wind SpeedMPH,Gust SpeedMPH,PrecipitationIn,Events,Conditions,WindDirDegrees,DateUTC
12:53 AM,52.0,50.0,93,30.10,10.0,East,10.4,-,N/A,,Overcast,90,2013-01-10 06:53:00
1:53 AM,52.0,50.0,93,30.05,10.0,East,11.5,17.3,N/A,,Overcast,80,2013-01-10 07:53:00
2:19 AM,51.8,50.0,94,30.06,6.0,East,8.1,-,N/A,,Overcast,80,2013-01-10 08:19:00
2:53 AM,52.0,50.0,93,30.05,3.0,East,5.8,-,N/A,,Overcast,90,2013-01-10 08:53:00
3:08 AM,51.8,50.0,94,30.05,2.5,East,6.9,-,0.00,Rain,Light Rain,80,2013-01-10 09:08:00
3:39 AM,51.8,50.0,94,30.01,3.0,ENE,6.9,-,0.01,Rain,Light Rain,70,2013-01-10 09:39:00
3:53 AM,52.0,50.0,93,30.00,4.0,East,8.1,-,0.01,,Overcast,80,2013-01-10 09:53:00
4:08 AM,51.8,50.0,94,29.99,2.5,East,9.2,-,N/A,,Overcast,80,2013-01-10 10:08:00
4:18 AM,51.8,50.0,94,29.99,5.0,East,6.9,-,N/A,,Overcast,90,2013-01-10 10:18:00
4:53 AM,52.0,50.0,93,29.98,2.0,East,9.2,-,N/A,,Overcast,90,2013-01-10 10:53:00
5:33 AM,51.8,50.0,94,29.96,3.0,East,6.9,-,N/A,,Overcast,80,2013-01-10 11:33:00
5:41 AM,51.8,50.0,94,29.96,2.5,East,6.9,-,0.00,Rain,Light Rain,80,2013-01-10 11:41:00
5:51 AM,51.8,50.0,94,29.95,3.0,East,6.9,-,0.00,,Overcast,80,2013-01-10 11:51:00
5:53 AM,52.0,50.0,93,29.95,3.0,East,6.9,-,0.00,,Overcast,80,2013-01-10 11:53:00
6:18 AM,51.8,50.0,94,29.96,2.5,East,4.6,-,N/A,,Overcast,80,2013-01-10 12:18:00
6:25 AM,51.8,50.0,94,29.96,4.0,East,5.8,-,N/A,,Overcast,80,2013-01-10 12:25:00
6:39 AM,51.8,50.0,94,29.96,2.5,East,4.6,-,N/A,,Overcast,100,2013-01-10 12:39:00
6:53 AM,52.0,50.0,93,29.95,5.0,East,5.8,-,N/A,,Overcast,90,2013-01-10 12:53:00
7:53 AM,53.1,51.1,93,29.94,8.0,Calm,Calm,-,0.01,,Overcast,0,2013-01-10 13:53:00
8:15 AM,53.6,51.8,94,29.95,2.0,East,3.5,-,0.00,Rain,Light Rain,90,2013-01-10 14:15:00
8:53 AM,53.1,52.0,96,29.95,3.0,ENE,3.5,-,0.00,,Overcast,70,2013-01-10 14:53:00
9:17 AM,55.4,53.6,94,29.93,4.0,ESE,4.6,-,N/A,,Overcast,110,2013-01-10 15:17:00
9:25 AM,55.4,53.6,94,29.94,2.5,SE,4.6,-,0.01,Rain,Light Rain,130,2013-01-10 15:25:00
9:37 AM,55.4,53.6,94,29.94,3.0,SE,4.6,-,0.01,Rain,Light Rain,130,2013-01-10 15:37:00
9:46 AM,55.4,53.6,94,29.94,5.0,Variable,3.5,-,N/A,,Overcast,0,2013-01-10 15:46:00
9:53 AM,55.9,55.0,97,29.93,6.0,Calm,Calm,-,0.01,,Overcast,0,2013-01-10 15:53:00
10:06 AM,57.2,55.4,94,29.92,10.0,ESE,4.6,-,N/A,,Overcast,110,2013-01-10 16:06:00
10:16 AM,57.2,55.4,94,29.93,10.0,SE,3.5,-,N/A,,Overcast,130,2013-01-10 16:16:00
10:37 AM,57.2,55.4,94,29.93,5.0,Variable,3.5,-,0.00,Rain,Light Rain,0,2013-01-10 16:37:00
10:46 AM,59.0,55.4,88,29.93,8.0,South,5.8,-,0.00,Rain,Light Rain,170,2013-01-10 16:46:00
10:53 AM,59.0,55.9,90,29.92,10.0,South,6.9,-,0.00,Rain,Light Rain,170,2013-01-10 16:53:00
11:28 AM,60.8,55.4,82,29.90,10.0,South,9.2,17.3,0.00,,Mostly Cloudy,190,2013-01-10 17:28:00
11:48 AM,60.8,55.4,82,29.90,10.0,South,9.2,-,0.00,,Scattered Clouds,180,2013-01-10 17:48:00
11:53 AM,61.0,55.0,81,29.88,10.0,South,6.9,-,0.00,,Scattered Clouds,190,2013-01-10 17:53:00
12:34 PM,62.6,53.6,72,29.87,10.0,SSW,10.4,18.4,N/A,,Overcast,210,2013-01-10 18:34:00
12:53 PM,61.0,53.1,75,29.85,10.0,SSW,5.8,-,N/A,,Overcast,200,2013-01-10 18:53:00
1:09 PM,62.6,53.6,72,29.84,10.0,SSW,8.1,-,N/A,,Overcast,210,2013-01-10 19:09:00
1:53 PM,63.0,50.0,63,29.83,10.0,SSW,11.5,-,N/A,,Overcast,200,2013-01-10 19:53:00
2:53 PM,60.1,48.0,64,29.83,10.0,South,8.1,17.3,N/A,,Overcast,190,2013-01-10 20:53:00
3:53 PM,57.0,48.0,72,29.86,10.0,SW,15.0,-,0.01,,Overcast,220,2013-01-10 21:53:00
4:53 PM,55.9,46.0,69,29.86,10.0,SSW,12.7,18.4,N/A,,Scattered Clouds,200,2013-01-10 22:53:00
5:53 PM,55.0,45.0,69,29.88,10.0,SW,11.5,-,N/A,,Overcast,220,2013-01-10 23:53:00
6:53 PM,54.0,45.0,72,29.88,10.0,SSW,10.4,-,N/A,,Mostly Cloudy,200,2013-01-11 00:53:00
7:53 PM,51.1,45.0,80,29.90,10.0,SSW,8.1,-,N/A,,Partly Cloudy,200,2013-01-11 01:53:00
8:53 PM,50.0,44.1,80,29.90,10.0,SSW,10.4,-,N/A,,Partly Cloudy,210,2013-01-11 02:53:00
9:53 PM,50.0,44.1,80,29.89,10.0,SSW,8.1,-,N/A,,Clear,200,2013-01-11 03:53:00
10:53 PM,48.2,44.6,87,29.90,10.0,South,9.2,-,N/A,,Clear,180,2013-01-11 04:53:00
11:53 PM,48.0,43.0,83,29.91,10.0,SSW,11.5,-,N/A,,Partly Cloudy,200,2013-01-11 05:53:00